INSAT-3DS

Last updated on Sun Apr 12 2026 00:02:27 GMT+0000 (Coordinated Universal Time)

1 58990U 24033A 26101.47406078 -.00000155 00000+0 00000+0 0 9999 2 58990 0.0544 85.6771 0001995 300.1406 66.6109 1.00273203 46396
UTC large
Height (km)
Speed (km/s)
/
Latitude / Longitude
Inclination (degrees)
Orbital Period (minutes)
Azimuth
Elevation
Range (km)
Doppler Factor

Next 0 passes for location: London (51.5072 / 0.1276)

Sorry there are no passes over London.
INSAT-3DS